[[{"header":{"parameterUnit":"m.s-1","parameterCategory":1,"la1":30.2991,"la2":30.254,"lo1":-89.0895,"lo2":-89.0444,"dy":0.0017,"dx":0.0017,"nx":28,"ny":28,"refTime":"2025-04-06T21:00:00:Z","depth":0,"parameterNumber":2,"parameterNumberName":"U-component_of_WINDS"},"data":[0,0,0,0,0,0,0,0,0,0,0,0,0,0,0,0,0,0,0,0,0,0,0,0,0,0,0,0,0,0,0,0,0,0,0,0,0,0,0,0,0,0,0,0,0,0,0,0,0,0,0,0,0,0,0,0,0,0,3.0363,3.0363,0,3.0444,3.0445,3.0446,3.0407,3.0404,3.0402,3.04,3.049,3.0494,3.0498,0,0,0,0,0,0,0,0,0,0,0,0,0,3.0182,3.0185,3.0362,3.0363,3.0364,3.0444,3.0445,3.0446,3.0407,3.0404,3.0402,3.0399,3.0488,3.0494,3.0499,0,0,0,0,0,0,0,0,0,0,0,0,0,3.0262,3.0186,3.0362,3.0354,3.0355,3.0443,3.0445,3.0446,3.0407,3.0404,3.0401,3.0398,3.0487,3.0493,3.0499,3.0603,0,0,3.0519,3.0522,0,0,0,0,0,0,0,0,3.0257,3.0268,3.0355,3.0355,3.0355,3.0412,3.0414,3.0499,3.0408,3.0388,3.04,3.0397,3.0467,3.0475,3.0497,3.0607,3.0611,3.052,3.0524,3.0527,3.0528,0,0,0,0,0,0,0,3.0252,3.0265,3.0395,3.0356,3.0356,3.035,3.0357,3.043,3.0444,3.0389,3.0386,3.0396,3.0466,3.0491,3.0499,3.0612,3.052,3.0526,3.053,3.0532,3.0815,3.0819,0,0,0,0,0,0,3.0245,3.026,3.0392,3.0397,3.0297,3.0355,3.0364,3.0397,3.0443,3.0447,3.0399,3.0394,3.0481,3.0491,3.0502,3.0628,3.0527,3.0533,3.0536,3.0812,3.0816,3.082,0,0,0,0,0,0,3.0242,3.0257,3.0389,3.0328,3.0344,3.0362,3.0399,3.04,3.0424,3.045,3.0453,3.0421,3.0479,3.0493,3.0578,3.0631,3.0536,3.0542,3.0808,3.0813,3.0818,3.088,0,0,0,0,0,0,3.0237,3.0256,3.0293,3.0329,3.0348,3.0462,3.0402,3.0404,3.0435,3.043,3.0472,3.0476,3.0478,3.0569,3.0585,3.0638,3.0547,3.0803,3.081,3.0817,3.0874,3.0887,3.0899,0,0,0,0,0,3.023,3.0308,3.0295,3.0312,3.0394,3.0464,3.0475,3.0474,3.0439,3.0478,3.0496,3.0474,3.0623,3.0578,3.0596,3.0651,3.08,3.0808,3.0816,3.0868,3.0884,3.0898,0,0,0,0,0,0,3.0279,3.0312,3.0299,3.039,3.0425,3.0458,3.0506,3.0491,3.0538,3.0531,3.053,3.054,3.063,3.0649,3.0599,3.0756,3.0706,3.0718,3.074,3.0756,3.0768,3.0762,3.0552,0,0,0,0,0,3.03,3.0352,3.038,3.0458,3.0476,3.0489,3.0519,3.0516,3.0552,3.0567,3.0591,3.0629,3.0685,3.0721,3.0774,3.0877,3.0887,3.0924,3.0937,3.0947,3.0958,3.1017,3.1035,3.0847,3.0847,3.0847,0,0,3.0345,3.037,3.0403,3.0468,3.0495,3.0552,3.0501,3.0562,3.0606,3.0577,3.0659,3.0679,3.0722,3.0818,3.0861,3.0837,3.1012,3.0957,3.0965,3.097,3.1028,3.1045,3.1061,3.0852,3.0851,3.0851,0,0,3.0455,3.0478,3.0547,3.0575,3.0615,3.0624,3.0641,3.0677,3.0688,3.0771,3.0752,3.0805,3.0899,3.0932,3.0961,3.1089,3.1072,3.1106,3.1171,3.123,3.1245,3.1258,3.1306,3.1323,3.1116,3.1117,3.1117,0,3.0506,3.0588,3.0585,3.0649,3.068,3.0656,3.0728,3.0756,3.0812,3.0836,3.0807,3.0928,3.0955,3.106,3.1092,3.1115,3.1137,3.1101,3.1242,3.1256,3.1268,3.1314,3.1331,3.1121,3.112,3.112,3.1119,0,3.065,3.0709,3.076,3.0814,3.0851,3.0918,3.0928,3.0967,3.0961,3.0974,3.1061,3.1093,3.1153,3.1178,3.1173,3.1284,3.1268,3.1241,3.1191,3.129,3.1333,3.135,3.1126,3.1125,3.1124,3.1123,0,0,3.0792,3.0845,3.0864,3.089,3.0934,3.0981,3.1049,3.1107,3.1141,3.1182,3.1242,3.1324,3.1301,3.1334,3.1334,3.1385,3.1488,3.1353,3.1354,3.1378,3.1615,3.1635,3.1655,3.1477,3.148,3.1483,3.1612,0,3.0906,3.1023,3.1024,3.1134,3.1189,3.117,3.123,3.1266,3.1281,3.1333,3.1351,3.141,3.1373,3.1394,3.1443,3.1464,3.1535,3.1455,3.1536,3.1538,3.1526,3.1677,3.1698,3.1818,3.1629,3.1631,3.1633,0,3.1055,3.11,3.1215,3.1255,3.1278,3.1332,3.1387,3.1435,3.1478,3.1486,3.1524,3.1517,3.1591,3.1539,3.1643,3.1589,3.1623,3.1639,3.1643,3.1651,3.1592,3.1691,3.1856,3.1875,3.166,3.1658,3.1656,0,3.1149,3.1239,3.132,3.1342,3.139,3.1429,3.1452,3.149,3.1526,3.1575,3.1599,3.1657,3.1689,3.1736,3.1746,3.1706,3.1852,3.1799,3.1863,3.1863,3.1894,3.1892,3.2068,3.1914,3.1914,3.1914,3.1913,0,3.1277,3.1349,3.1363,3.1413,3.1494,3.1496,3.1577,3.1597,3.1633,3.1689,3.1676,3.173,3.1739,3.1797,3.1806,3.1893,3.1907,3.1918,3.1919,3.1919,3.1918,3.1941,3.1934,3.1918,3.1917,3.1916,3.1915,0,3.1395,3.1407,3.1495,3.1533,3.1545,3.1604,3.1638,3.1688,3.1703,3.1774,3.1791,3.1815,3.1882,3.1897,3.1977,3.1983,3.2087,3.208,3.2072,3.2072,3.2135,3.2129,3.2333,3.2361,3.2188,3.2189,3.2191,0,3.1477,3.1531,3.1576,3.1612,3.1636,3.1694,3.1731,3.1737,3.1776,3.183,3.1875,3.194,3.1992,3.2101,3.2127,3.219,3.2185,3.2252,3.2194,3.2194,3.2188,3.2185,3.2192,3.2263,3.2265,3.2267,3.2268,0,3.1621,3.1625,3.1676,3.1732,3.1776,3.182,3.1862,3.1893,3.1906,3.1951,3.2018,3.2059,3.2141,3.2208,3.2271,3.2297,3.2287,3.2286,3.2304,3.2305,3.2299,3.2305,3.2103,3.2281,3.228,3.2279,3.2278,3.2278,3.1724,3.1773,3.1813,3.1872,3.1905,3.1946,3.1995,3.2016,3.2072,3.2137,3.2139,3.2213,3.2259,3.2342,3.2373,3.2434,3.2414,3.244,3.2447,3.2453,3.246,3.2289,3.2446,3.2445,3.2445,3.2445,3.2444,0,3.1869,3.1894,3.1949,3.2008,3.2057,3.204,3.2088,3.213,3.2195,3.2237,3.2289,3.2369,3.2434,3.2467,3.2533,3.2576,3.2573,3.2593,3.259,3.2598,3.2473,3.2451,3.2595,3.2594,3.2594,3.2594,3.2594,3.2594,3.195,3.2032,3.2042,3.2142,3.2168,3.2239,3.2268,3.2307,3.2341,3.243,3.2484,3.2504,3.2544,3.2613,3.2674,3.2682,3.2708,3.2732,3.2738,3.2621,3.2606,3.2591,3.2571,3.2737,3.2737,3.2857,3.2858,3.2859]},{"header":{"parameterUnit":"m.s-1","parameterCategory":1,"la1":30.2991,"la2":30.254,"lo1":-89.0895,"lo2":-89.0444,"dy":0.0017,"dx":0.0017,"nx":28,"ny":28,"refTime":"2025-04-06T21:00:00:Z","depth":0,"parameterNumber":3,"parameterNumberName":"V-component_of_WINDS"},"data":[0,0,0,0,0,0,0,0,0,0,0,0,0,0,0,0,0,0,0,0,0,0,0,0,0,0,0,0,0,0,0,0,0,0,0,0,0,0,0,0,0,0,0,0,0,0,0,0,0,0,0,0,0,0,0,0,0,0,-6.3276,-6.3277,0,-6.3432,-6.3433,-6.3435,-6.3424,-6.3422,-6.3419,-6.3417,-6.3569,-6.3574,-6.3581,0,0,0,0,0,0,0,0,0,0,0,0,0,-6.2959,-6.2965,-6.3275,-6.3277,-6.3279,-6.3431,-6.3433,-6.3435,-6.3424,-6.3422,-6.3419,-6.3416,-6.3566,-6.3574,-6.3581,0,0,0,0,0,0,0,0,0,0,0,0,0,-6.3103,-6.2966,-6.3275,-6.3292,-6.3295,-6.3431,-6.3433,-6.3436,-6.3425,-6.3421,-6.3418,-6.3415,-6.3564,-6.3573,-6.3582,-6.3708,0,0,-6.361,-6.3614,0,0,0,0,0,0,0,0,-6.3095,-6.3115,-6.3288,-6.3291,-6.3295,-6.3405,-6.3377,-6.3527,-6.3426,-6.3375,-6.3417,-6.3413,-6.3516,-6.3529,-6.3566,-6.3715,-6.3722,-6.3611,-6.3617,-6.3621,-6.3623,0,0,0,0,0,0,0,-6.3085,-6.3108,-6.3337,-6.329,-6.3295,-6.3289,-6.3306,-6.3405,-6.3463,-6.338,-6.3379,-6.3398,-6.3518,-6.3557,-6.3569,-6.3724,-6.3611,-6.3619,-6.3625,-6.3629,-6.3981,-6.3985,0,0,0,0,0,0,-6.3072,-6.31,-6.3332,-6.3342,-6.3185,-6.3298,-6.3316,-6.3373,-6.3462,-6.3472,-6.3401,-6.3397,-6.3543,-6.3558,-6.3574,-6.3726,-6.3621,-6.3629,-6.3635,-6.3977,-6.3982,-6.3986,0,0,0,0,0,0,-6.3066,-6.3093,-6.3326,-6.3221,-6.325,-6.3307,-6.337,-6.3378,-6.3417,-6.3478,-6.3487,-6.3431,-6.3541,-6.3561,-6.3675,-6.3731,-6.3634,-6.3642,-6.3973,-6.3979,-6.3984,-6.4031,0,0,0,0,0,0,-6.3057,-6.3091,-6.3142,-6.3222,-6.3256,-6.3426,-6.3374,-6.3383,-6.3434,-6.3431,-6.3509,-6.3519,-6.354,-6.3661,-6.3684,-6.3742,-6.3649,-6.3968,-6.3975,-6.3982,-6.4025,-6.4038,-6.4049,0,0,0,0,0,-6.3045,-6.3147,-6.3144,-6.3172,-6.3321,-6.343,-6.3449,-6.3473,-6.3439,-6.3489,-6.3527,-6.3516,-6.3722,-6.3673,-6.3699,-6.376,-6.3964,-6.3973,-6.3982,-6.4019,-6.4035,-6.4049,0,0,0,0,0,0,-6.3069,-6.3158,-6.3156,-6.3288,-6.3352,-6.3428,-6.3492,-6.3489,-6.3562,-6.3555,-6.358,-6.3598,-6.3711,-6.3747,-6.3691,-6.3885,-6.3838,-6.3852,-6.3858,-6.3873,-6.3885,-6.3873,-6.3657,0,0,0,0,0,-6.3091,-6.3175,-6.3247,-6.3356,-6.3388,-6.3434,-6.3483,-6.3496,-6.3562,-6.3588,-6.3635,-6.3697,-6.3776,-6.3827,-6.3902,-6.403,-6.4045,-6.4085,-6.4097,-6.4106,-6.4118,-6.4185,-6.4203,-6.4014,-6.4014,-6.4014,0,0,-6.3134,-6.3193,-6.3244,-6.3362,-6.3413,-6.3496,-6.3457,-6.3547,-6.3609,-6.3601,-6.3712,-6.3748,-6.3818,-6.3939,-6.3995,-6.3972,-6.4173,-6.4117,-6.4124,-6.4131,-6.4196,-6.4214,-6.4229,-6.402,-6.4019,-6.4018,0,0,-6.3256,-6.331,-6.3406,-6.3459,-6.3538,-6.3567,-6.359,-6.3667,-6.3692,-6.3804,-6.3799,-6.387,-6.4006,-6.4056,-6.4098,-6.4238,-6.4229,-6.4261,-6.4324,-6.4389,-6.4404,-6.4417,-6.4465,-6.4482,-6.4273,-6.4273,-6.4273,0,-6.3299,-6.3428,-6.3455,-6.3547,-6.3597,-6.3597,-6.3692,-6.3741,-6.3839,-6.3872,-6.3847,-6.4015,-6.4063,-6.4194,-6.4228,-6.4263,-6.4288,-6.4252,-6.4401,-6.4414,-6.4427,-6.4472,-6.449,-6.4276,-6.4276,-6.4276,-6.4275,0,-6.3476,-6.3565,-6.3633,-6.3731,-6.3789,-6.3881,-6.3919,-6.3974,-6.3982,-6.4014,-6.4125,-6.4183,-6.4269,-6.4301,-6.4309,-6.4433,-6.4416,-6.4396,-6.4348,-6.4448,-6.4491,-6.4508,-6.4281,-6.428,-6.4279,-6.4278,0,0,-6.3618,-6.3729,-6.3753,-6.3797,-6.3883,-6.3951,-6.4042,-6.4129,-6.4174,-6.4241,-6.4316,-6.443,-6.4411,-6.446,-6.4473,-6.4531,-6.4635,-6.4503,-6.4504,-6.4523,-6.4771,-6.4786,-6.4806,-6.463,-6.4633,-6.4636,-6.4765,0,-6.3747,-6.3913,-6.3939,-6.4083,-6.4164,-6.4164,-6.4243,-6.4302,-6.4334,-6.4404,-6.4437,-6.4517,-6.4487,-6.4516,-6.4574,-6.461,-6.4684,-6.4601,-6.4696,-6.47,-6.4678,-6.4829,-6.4844,-6.4963,-6.4782,-6.4785,-6.4787,0,-6.3921,-6.3995,-6.4148,-6.4222,-6.4256,-6.4327,-6.4408,-6.4477,-6.4542,-6.4561,-6.4615,-6.4621,-6.4712,-6.4662,-6.4785,-6.4728,-6.4768,-6.4792,-6.4797,-6.4806,-6.4748,-6.4839,-6.5002,-6.5019,-6.4814,-6.4812,-6.481,0,-6.4006,-6.4144,-6.4253,-6.429,-6.438,-6.4429,-6.4468,-6.4531,-6.4581,-6.465,-6.4682,-6.476,-6.4802,-6.4861,-6.4886,-6.4848,-6.5007,-6.496,-6.5022,-6.5022,-6.5055,-6.5052,-6.5225,-6.5084,-6.5083,-6.5083,-6.5083,0,-6.4147,-6.424,-6.4293,-6.4359,-6.4462,-6.449,-6.459,-6.4626,-6.4682,-6.4754,-6.4757,-6.4823,-6.4854,-6.4923,-6.4943,-6.5041,-6.506,-6.5075,-6.5079,-6.5074,-6.5072,-6.51,-6.5092,-6.5088,-6.5087,-6.5086,-6.5085,0,-6.426,-6.43,-6.4418,-6.4493,-6.4514,-6.4586,-6.4649,-6.4712,-6.4742,-6.4832,-6.4855,-6.4902,-6.4984,-6.5015,-6.5115,-6.5128,-6.524,-6.5238,-6.5219,-6.522,-6.528,-6.5273,-6.5475,-6.5501,-6.5344,-6.5346,-6.5347,0,-6.4347,-6.4419,-6.4502,-6.4552,-6.4593,-6.4672,-6.4724,-6.4753,-6.4805,-6.4885,-6.4937,-6.502,-6.5087,-6.5218,-6.5258,-6.5334,-6.5332,-6.5398,-6.5343,-6.5336,-6.5331,-6.5326,-6.5332,-6.5407,-6.5409,-6.541,-6.5411,0,-6.4496,-6.4512,-6.4588,-6.467,-6.4732,-6.4797,-6.486,-6.4899,-6.4937,-6.4996,-6.5081,-6.5133,-6.5236,-6.5316,-6.5393,-6.5429,-6.5425,-6.5428,-6.5446,-6.5441,-6.5426,-6.5433,-6.5245,-6.5423,-6.5422,-6.5421,-6.542,-6.542,-6.4598,-6.4661,-6.4729,-6.4813,-6.4864,-6.4923,-6.4985,-6.5024,-6.5097,-6.5184,-6.5196,-6.5286,-6.5347,-6.5451,-6.5491,-6.5559,-6.5542,-6.5568,-6.5575,-6.5581,-6.5584,-6.5417,-6.5574,-6.5573,-6.5573,-6.5573,-6.5573,0,-6.4746,-6.479,-6.4867,-6.4956,-6.502,-6.5015,-6.5084,-6.5137,-6.5218,-6.5277,-6.5344,-6.544,-6.5518,-6.5565,-6.5642,-6.5688,-6.5687,-6.5707,-6.5702,-6.571,-6.5596,-6.5572,-6.5705,-6.5705,-6.5705,-6.5705,-6.5705,-6.5705,-6.483,-6.4936,-6.496,-6.5089,-6.5132,-6.5223,-6.5263,-6.5315,-6.5363,-6.5471,-6.5537,-6.5568,-6.5621,-6.5702,-6.5772,-6.5783,-6.581,-6.5831,-6.584,-6.5732,-6.5719,-6.5706,-6.5683,-6.5837,-6.5837,-6.5948,-6.5949,-6.595]}]]